TimeCST,TemperatureF,Dew PointF,Humidity,Sea Level PressureIn,VisibilityMPH,Wind Direction,Wind SpeedMPH,Gust SpeedMPH,PrecipitationIn,Events,Conditions,WindDirDegrees,DateUTC
12:54 AM,30.0,21.0,69,30.17,10.0,Calm,Calm,-,N/A,,Clear,0,2013-01-08 06:54:00
1:54 AM,30.0,21.0,69,30.17,10.0,Calm,Calm,-,N/A,,Clear,0,2013-01-08 07:54:00
2:54 AM,28.9,21.0,72,30.18,10.0,Calm,Calm,-,N/A,,Clear,0,2013-01-08 08:54:00
3:54 AM,26.1,19.9,78,30.18,10.0,Calm,Calm,-,N/A,,Clear,0,2013-01-08 09:54:00
4:54 AM,25.0,19.9,81,30.18,10.0,Calm,Calm,-,N/A,,Clear,0,2013-01-08 10:54:00
5:54 AM,25.0,21.0,85,30.19,10.0,Calm,Calm,-,N/A,,Clear,0,2013-01-08 11:54:00
6:54 AM,26.1,21.0,81,30.19,10.0,Calm,Calm,-,N/A,,Mostly Cloudy,0,2013-01-08 12:54:00
7:54 AM,27.0,21.9,81,30.22,10.0,Calm,Calm,-,N/A,,Mostly Cloudy,0,2013-01-08 13:54:00
8:54 AM,30.9,26.1,82,30.23,10.0,Calm,Calm,-,N/A,,Scattered Clouds,0,2013-01-08 14:54:00
9:54 AM,43.0,25.0,49,30.21,10.0,SSW,5.8,-,N/A,,Scattered Clouds,200,2013-01-08 15:54:00
10:54 AM,46.9,23.0,39,30.19,-9999.0,North,-9999.0,-,N/A,,Scattered Clouds,0,2013-01-08 16:54:00
11:54 AM,50.0,23.0,35,30.16,10.0,Variable,3.5,-,N/A,,Partly Cloudy,0,2013-01-08 17:54:00
12:54 PM,53.1,23.0,31,30.13,10.0,SSW,8.1,-,N/A,,Clear,210,2013-01-08 18:54:00
1:54 PM,55.0,21.0,27,30.11,10.0,South,9.2,-,N/A,,Clear,170,2013-01-08 19:54:00
2:54 PM,57.0,19.9,24,30.09,10.0,SSE,5.8,-,N/A,,Clear,160,2013-01-08 20:54:00
3:54 PM,55.9,18.0,23,30.10,10.0,SSE,9.2,-,N/A,,Scattered Clouds,160,2013-01-08 21:54:00
4:54 PM,53.1,19.0,26,30.10,10.0,South,8.1,-,N/A,,Mostly Cloudy,180,2013-01-08 22:54:00
5:54 PM,52.0,19.9,28,30.10,10.0,South,4.6,-,N/A,,Scattered Clouds,170,2013-01-08 23:54:00
6:54 PM,51.1,23.0,33,30.12,10.0,South,6.9,-,N/A,,Overcast,190,2013-01-09 00:54:00
7:54 PM,51.1,27.0,39,30.13,10.0,SSW,11.5,-,N/A,,Overcast,200,2013-01-09 01:54:00
8:54 PM,50.0,28.0,43,30.14,10.0,SSW,9.2,-,N/A,,Mostly Cloudy,210,2013-01-09 02:54:00
9:54 PM,46.9,28.9,50,30.15,10.0,Calm,Calm,-,N/A,,Scattered Clouds,0,2013-01-09 03:54:00
10:54 PM,46.4,30.2,53,30.14,10.0,SSW,4.6,-,N/A,,Scattered Clouds,210,2013-01-09 04:54:00
11:54 PM,48.9,34.0,56,30.17,10.0,West,3.5,-,N/A,,Overcast,260,2013-01-09 05:54:00